Location: Borojevi?i
(45.0486°N, 16.2297°E)
Time: 23:57:14
(UTC+00:00)

USA 267 - Pass Details

Date: 08 August 2020
Orbit: 1101 x 1106 km, 123.0° (Epoch: 22 September)

Event Time Altitude Azimuth Distance (km) Brightness Sun altitude
Rises 19:38:31 0° 50° (NE) 3,929 6.1 -13.8°
Reaches altitude 10° 19:41:00 10° 51° (NE) 2,969 5.4 -14.2°
Maximum altitude 19:47:35 88° 325° (NW) 1,111 3.3 -15.0°
Drops below altitude 10° 19:54:09 10° 234° (SW) 2,961 5.6 -15.9°
Sets 19:56:37 0° 234° (SW) 3,917 6.3 -16.2°
